Date String (YYYY-MM-DD hh:mm:ss) UTC,Instrument flags,Ambient pressure (hPa),Sample flow (lpm),Bypass flow (lpm),Sample temperature (°C),Ambient temperature (°C),ASC tube jacket temperature (°C),LED temperature (°C),Box temperature (°C),Sample RH (%),Span deviation,Mass concentration (μg/m³),Mass concentration (μg/m³),Mass concentration (μg/m³)
DateTimeUTC,F1_M11,P_M11,Q1_M11,Q2_M11,T1_M11,T2_M11,T3_M11,T4_M11,T5_M11,U1_M11,ZSPAN_M11,X0_M11,X2_M11,X1_M11
2022-04-03 19:00:00,,0825.3,5.00,0.00,25.7,25.1,00.0,34.7,27.6,11.9,0000.0,0020.02,0005.40,0003.51
2022-04-03 19:01:00,,0825.3,4.98,0.00,25.8,25.1,00.0,34.7,27.6,12.0,0000.0,0020.75,0005.45,0003.51
2022-04-03 19:02:00,,0825.3,5.01,0.00,25.8,25.1,00.0,34.7,27.6,11.9,0000.0,0020.21,0005.51,0003.52
2022-04-03 19:03:00,,0825.3,5.01,0.00,25.8,25.0,00.0,34.7,27.6,11.8,0000.0,0020.20,0005.54,0003.53
2022-04-03 19:04:00,,0825.3,5.00,0.00,25.8,25.0,00.0,34.7,27.6,12.0,0000.0,0021.20,0005.57,0003.52
2022-04-03 19:05:00,,0825.3,5.01,0.00,25.8,25.1,00.0,34.7,27.6,11.9,0000.0,0020.76,0005.49,0003.51
2022-04-03 19:06:00,,0825.3,4.98,0.00,25.8,25.1,00.0,34.7,27.6,12.1,0000.0,0020.16,0005.45,0003.51
2022-04-03 19:07:00,,0825.3,5.00,0.00,25.8,25.0,00.0,34.7,27.6,12.0,0000.0,0018.87,0005.47,0003.52
2022-04-03 19:08:00,,0825.2,5.01,0.00,25.8,25.0,00.0,34.7,27.5,12.1,0000.0,0019.57,0005.46,0003.53
2022-04-03 19:09:00,,0825.2,5.00,0.00,25.7,25.0,00.0,34.7,27.5,11.9,0000.0,0019.12,0005.47,0003.56
2022-04-03 19:10:00,,0825.3,5.01,0.00,25.7,24.9,00.0,34.7,27.5,12.1,0000.0,0018.40,0005.44,0003.58
2022-04-03 19:11:00,,0825.3,5.01,0.00,25.7,25.0,00.0,34.7,27.6,12.3,0000.0,0018.42,0005.44,0003.59
2022-04-03 19:12:00,,0825.3,5.00,0.00,25.7,25.0,00.0,34.7,27.6,12.0,0000.0,0018.18,0005.45,0003.60
2022-04-03 19:13:00,,0825.3,5.00,0.00,25.7,25.0,00.0,34.7,27.5,12.1,0000.0,0018.64,0005.44,0003.61
2022-04-03 19:14:00,,0825.3,5.01,0.00,25.7,25.0,00.0,34.7,27.5,12.4,0000.0,0018.82,0005.42,0003.61
2022-04-03 19:15:00,,0825.3,4.99,0.00,25.7,25.0,00.0,34.7,27.5,12.3,0000.0,0017.52,0005.40,0003.63
2022-04-03 19:16:00,,0825.3,5.01,0.00,25.7,25.1,00.0,34.7,27.5,12.2,0000.0,0016.94,0005.43,0003.65
2022-04-03 19:17:00,,0825.2,4.99,0.00,25.7,25.0,00.0,34.7,27.5,12.1,0000.0,0017.88,0005.50,0003.65
2022-04-03 19:18:00,,0825.3,5.01,0.00,25.7,25.0,00.0,34.7,27.5,12.3,0000.0,0018.84,0005.50,0003.66
2022-04-03 19:19:00,,0825.3,5.00,0.00,25.7,25.1,00.0,34.7,27.5,12.1,0000.0,0020.08,0005.54,0003.66
2022-04-03 19:20:00,,0825.2,5.00,0.00,25.7,25.0,00.0,34.7,27.5,12.1,0000.0,0021.16,0005.60,0003.66
2022-04-03 19:21:00,,0825.2,4.99,0.00,25.7,25.0,00.0,34.7,27.5,12.5,0000.0,0022.68,0005.68,0003.66
2022-04-03 19:22:00,,0825.2,5.00,0.00,25.7,25.0,00.0,34.7,27.5,12.2,0000.0,0022.86,0005.68,0003.66
2022-04-03 19:23:00,,0825.2,5.00,0.00,25.7,25.0,00.0,34.7,27.5,12.2,0000.0,0022.56,0005.65,0003.67
2022-04-03 19:24:00,,0825.2,5.00,0.00,25.7,24.9,00.0,34.7,27.4,12.5,0000.0,0022.77,0005.65,0003.66
2022-04-03 19:25:00,,0825.3,5.00,0.00,25.7,25.0,00.0,34.7,27.4,12.4,0000.0,0022.39,0005.69,0003.66
2022-04-03 19:26:00,,0825.2,5.01,0.00,25.7,25.0,00.0,34.7,27.4,12.6,0000.0,0022.42,0005.69,0003.66
2022-04-03 19:27:00,,0825.2,4.99,0.00,25.7,25.0,00.0,34.7,27.4,12.5,0000.0,0022.91,0005.70,0003.65
2022-04-03 19:28:00,,0825.2,5.00,0.00,25.6,24.9,00.0,34.7,27.4,12.3,0000.0,0021.16,0005.63,0003.65
2022-04-03 19:29:00,,0825.2,5.00,0.00,25.7,24.9,00.0,34.7,27.5,12.3,0000.0,0020.24,0005.62,0003.65
2022-04-03 19:30:00,,0825.2,5.00,0.00,25.7,24.9,00.0,34.7,27.5,12.5,0000.0,0018.57,0005.54,0003.64
2022-04-03 19:31:00,,0825.2,5.00,0.00,25.7,25.0,00.0,34.7,27.5,12.2,0000.0,0018.41,0005.51,0003.64
2022-04-03 19:32:00,,0825.2,5.00,0.00,25.7,24.9,00.0,34.7,27.5,12.2,0000.0,0017.76,0005.44,0003.64
2022-04-03 19:33:00,,0825.2,4.99,0.00,25.6,24.9,00.0,34.7,27.5,12.6,0000.0,0018.05,0005.46,0003.65
2022-04-03 19:34:00,,0825.2,5.00,0.00,25.7,24.9,00.0,34.7,27.5,13.0,0000.0,0018.86,0005.51,0003.66
2022-04-03 19:35:00,,0825.2,5.00,0.00,25.7,25.0,00.0,34.7,27.5,12.7,0000.0,0017.93,0005.47,0003.67
2022-04-03 19:36:00,,0825.2,5.00,0.00,25.7,25.0,00.0,34.7,27.5,12.2,0000.0,0018.01,0005.47,0003.69
2022-04-03 19:37:00,,0825.2,5.01,0.00,25.7,25.0,00.0,34.7,27.4,12.3,0000.0,0018.82,0005.53,0003.70
2022-04-03 19:38:00,,0825.2,5.00,0.00,25.7,25.0,00.0,34.7,27.5,12.2,0000.0,0019.38,0005.57,0003.71
2022-04-03 19:39:00,,0825.2,5.00,0.00,25.7,25.0,00.0,34.7,27.5,12.2,0000.0,0019.16,0005.59,0003.73
2022-04-03 19:40:00,,0825.1,4.99,0.00,25.7,25.0,00.0,34.7,27.5,12.3,0000.0,0018.86,0005.62,0003.74
2022-04-03 19:41:00,,0825.1,5.01,0.00,25.7,25.0,00.0,34.7,27.5,12.4,0000.0,0019.23,0005.73,0003.76
2022-04-03 19:42:00,,0825.1,4.98,0.00,25.7,25.1,00.0,34.7,27.6,12.3,0000.0,0019.03,0005.77,0003.78
2022-04-03 19:43:00,,0825.2,5.01,0.00,25.7,25.1,00.0,34.7,27.6,12.2,0000.0,0018.99,0005.82,0003.81
2022-04-03 19:44:00,,0825.2,5.00,0.00,25.8,25.2,00.0,34.7,27.7,12.4,0000.0,0018.81,0005.85,0003.83
2022-04-03 19:45:00,,0825.2,5.01,0.00,25.8,25.2,00.0,34.7,27.7,12.3,0000.0,0018.06,0005.84,0003.86
2022-04-03 19:46:00,,0825.1,5.00,0.00,25.8,25.2,00.0,34.7,27.6,12.1,0000.0,0017.83,0005.84,0003.89
2022-04-03 19:47:00,,0825.1,4.99,0.00,25.8,25.2,00.0,34.7,27.7,12.3,0000.0,0017.65,0005.80,0003.91
2022-04-03 19:48:00,,0825.0,5.01,0.00,25.8,25.2,00.0,34.7,27.6,12.1,0000.0,0017.51,0005.76,0003.93
2022-04-03 19:49:00,,0825.0,5.00,0.00,25.8,25.2,00.0,34.7,27.6,11.9,0000.0,0017.38,0005.81,0003.97
2022-04-03 19:50:00,,0825.0,5.01,0.00,25.8,25.2,00.0,34.7,27.6,11.9,0000.0,0017.92,0005.86,0003.99
2022-04-03 19:51:00,,0824.9,4.99,0.00,25.8,25.2,00.0,34.7,27.6,11.8,0000.0,0020.11,0005.90,0004.02
2022-04-03 19:52:00,,0824.9,4.99,0.00,25.8,25.2,00.0,34.7,27.6,11.9,0000.0,0021.95,0005.95,0004.05
2022-04-03 19:53:00,,0824.9,5.00,0.00,25.8,25.2,00.0,34.8,27.7,12.0,0000.0,0022.42,0006.03,0004.08
2022-04-03 19:54:00,,0824.9,5.00,0.00,25.8,25.2,00.0,34.8,27.7,12.0,0000.0,0021.26,0006.05,0004.10
2022-04-03 19:55:00,,0824.9,5.00,0.00,25.9,25.3,00.0,34.8,27.7,12.0,0000.0,0020.80,0006.08,0004.11
2022-04-03 19:56:00,,0824.9,5.00,0.00,25.9,25.3,00.0,34.8,27.7,12.0,0000.0,0020.69,0006.09,0004.12
2022-04-03 19:57:00,,0824.8,4.98,0.00,25.9,25.3,00.0,34.8,27.8,12.0,0000.0,0021.47,0006.20,0004.13
2022-04-03 19:58:00,,0824.9,5.02,0.00,25.9,25.3,00.0,34.8,27.8,11.9,0000.0,0021.43,0006.27,0004.15
2022-04-03 19:59:00,,0824.8,5.01,0.00,25.9,25.3,00.0,34.8,27.7,11.5,0000.0,0021.99,0006.28,0004.16
